GW2364 Weather Reports


time (UTC)temp
C
wind
direction
speed
KPH
gust
KPH
rain 1hr
cm
rain 24hr
cm
rain mn
cm
humidity
%
barometer
mb
20260903123005 26 243 3.2 12.9 0.00 0.00 0.00 86 1011.1
20260903121503 26 231 1.6 8.0 0.00 0.00 0.00 87 1011.1
20260903120006 26 209 3.2 12.9 0.00 0.00 0.00 87 1010.9
20260903114503 26 225 1.6 9.7 0.00 0.00 0.00 88 1011.0
20260903113003 26 221 0.0 6.4 0.00 0.00 0.00 88 1010.8
20260903111503 26 232 1.6 6.4 0.00 0.00 0.00 88 1010.8
20260903110005 26 219 0.0 9.7 0.00 0.00 0.00 88 1010.8
20260903104504 26 171 0.0 8.0 0.00 0.00 0.00 88 1010.7
20260903103005 26 155 0.0 6.4 0.00 0.00 0.00 88 1010.6
20260903101506 26 274 1.6 4.8 0.00 0.00 0.00 87 1010.7
20260903100005 26 170 0.0 4.8 0.00 0.00 0.00 87 1010.6
20260903094502 26 292 0.0 6.4 0.00 0.00 0.00 87 1010.7
20260903093004 26 213 0.0 3.2 0.00 0.00 0.00 87 1010.9
20260903091502 26 148 1.6 11.3 0.00 0.00 0.00 87 1010.9
20260903090005 26 195 0.0 3.2 0.00 0.00 0.00 86 1010.9
20260903084504 26 209 1.6 6.4 0.00 0.00 0.00 86 1010.9
20260903083001 26 78 1.6 12.9 0.00 0.00 0.00 85 1011.0
20260903081508 26 53 1.6 9.7 0.00 0.00 0.00 84 1010.9
20260903080006 26 246 3.2 8.0 0.00 0.00 0.00 84 1011.0
20260903074502 26 101 1.6 6.4 0.00 0.00 0.00 83 1011.0
20260903073002 26 116 0.0 6.4 0.00 0.00 0.00 82 1011.1
20260903071503 27 189 0.0 6.4 0.00 0.00 0.00 81 1011.1
20260903070005 27 128 1.6 8.0 0.00 0.00 0.00 80 1011.2
20260903064502 27 117 1.6 8.0 0.00 0.00 0.00 78 1011.3
20260903063001 27 104 3.2 12.9 0.00 0.00 0.00 77 1011.4
20260903061503 27 23 1.6 14.5 0.00 0.00 0.00 75 1011.4
20260903060007 27 175 1.6 16.1 0.00 0.00 0.00 74 1011.3
20260903054505 28 96 0.0 8.0 0.00 0.00 0.00 72 1011.3
20260903053009 28 107 3.2 11.3 0.00 0.00 0.00 69 1011.1
20260903051504 28 47 6.4 19.3 0.00 0.00 0.00 67 1011.1
20260903050011 28 113 6.4 19.3 0.00 0.00 0.00 67 1011.1
20260903031526 30 83 1.6 8.0 0.00 0.00 0.00 61 1010.6
20260903030015 31 84 3.2 9.7 0.00 0.00 0.00 59 1010.2
20260903024507 31 56 3.2 8.0 0.00 0.00 0.00 57 1009.9
20260903023009 31 17 3.2 11.3 0.00 0.00 0.00 57 1009.7
20260903021517 31 80 0.0 3.2 0.00 0.00 0.00 56 1009.3
20260903020007 31 80 1.6 3.2 0.00 0.00 0.00 55 1009.1
20260903014504 32 76 0.0 3.2 0.00 0.00 0.00 53 1008.9
20260903013011 32 72 1.6 4.8 0.00 0.00 0.00 52 1008.8
20260903011505 32 61 1.6 4.8 0.00 0.00 0.00 51 1008.9
20260903010006 33 51 3.2 8.0 0.00 0.00 0.00 50 1008.7
20260903004504 33 49 1.6 8.0 0.00 0.00 0.00 49 1008.8
20260903003005 34 74 6.4 17.7 0.00 0.00 0.00 46 1008.8
20260903001506 36 213 0.0 4.8 0.00 0.00 0.00 42 1008.8
20260903000006 36 246 0.0 8.0 0.00 0.00 0.00 41 1008.7
20260902234504 37 235 1.6 6.4 0.00 0.00 0.00 40 1008.7
20260902233013 37 252 3.2 12.9 0.00 0.00 0.00 40 1008.8
20260902231505 37 84 0.0 11.3 0.00 0.00 0.00 38 1008.7
20260902230006 37 215 3.2 9.7 0.00 0.00 0.00 38 1008.6
20260902224506 37 258 1.6 12.9 0.00 0.00 0.00 39 1008.7
20260902223005 38 157 1.6 11.3 0.00 0.00 0.00 37 1008.7
20260902221504 38 180 3.2 11.3 0.00 0.00 0.00 37 1008.8
20260902220008 38 259 6.4 14.5 0.00 0.00 0.00 38 1008.9
20260902214509 37 232 1.6 11.3 0.00 0.00 0.00 40 1009.1
20260902213006 36 227 4.8 12.9 0.00 0.00 0.00 41 1009.2
20260902211504 36 132 4.8 19.3 0.00 0.00 0.00 41 1009.2
20260902210006 37 234 3.2 11.3 0.00 0.00 0.00 40 1009.3
20260902204504 37 105 1.6 11.3 0.00 0.00 0.00 40 1009.5
20260902203004 38 210 3.2 17.7 0.00 0.00 0.00 38 1009.6
20260902201509 38 90 3.2 11.3 0.00 0.00 0.00 40 1009.9
20260902200006 37 235 4.8 12.9 0.00 0.00 0.00 41 1010.0
20260902194504 36 36 1.6 6.4 0.00 0.00 0.00 43 1010.4
20260902193005 37 45 1.6 6.4 0.00 0.00 0.00 43 1010.6
20260902191511 36 5 1.6 14.5 0.00 0.00 0.00 42 1010.7
20260902190009 37 36 4.8 11.3 0.00 0.00 0.00 41 1010.9
20260902184503 37 298 0.0 6.4 0.00 0.00 0.00 41 1011.2
20260902183004 37 303 1.6 11.3 0.00 0.00 0.00 42 1011.3
20260902181504 37 241 3.2 11.3 0.00 0.00 0.00 41 1011.7
20260902180007 37 152 3.2 8.0 0.00 0.00 0.00 42 1012.1
20260902174506 36 184 1.6 12.9 0.00 0.00 0.00 44 1012.4
20260902173004 35 213 0.0 14.5 0.00 0.00 0.00 46 1012.7
20260902171504 35 242 1.6 12.9 0.00 0.00 0.00 47 1012.8
20260902170008 34 262 3.2 8.0 0.00 0.00 0.00 49 1013.0
20260902164510 34 302 3.2 12.9 0.00 0.00 0.00 51 1013.1
20260902163003 33 208 4.8 11.3 0.00 0.00 0.00 52 1013.2
20260902161504 33 314 1.6 11.3 0.00 0.00 0.00 55 1013.2
20260902160009 32 234 6.4 12.9 0.00 0.00 0.00 56 1013.3
20260902154503 32 246 6.4 11.3 0.00 0.00 0.00 58 1013.3
20260902153006 31 238 1.6 6.4 0.00 0.00 0.00 63 1013.4
20260902151503 30 229 1.6 12.9 0.00 0.00 0.00 67 1013.4
20260902150008 28 279 3.2 11.3 0.00 0.00 0.00 69 1013.3
20260902144503 28 261 3.2 9.7 0.00 0.00 0.00 72 1013.3
20260902143003 27 240 4.8 14.5 0.00 0.00 0.00 75 1013.4
20260902141505 27 306 3.2 9.7 0.00 0.00 0.00 75 1013.3
20260902140005 27 243 3.2 12.9 0.00 0.00 0.00 73 1013.5
20260902134504 27 233 1.6 8.0 0.00 0.00 0.00 75 1013.4
20260902133004 26 215 1.6 6.4 0.00 0.00 0.00 78 1013.4
20260902131503 25 232 3.2 6.4 0.00 0.00 0.00 81 1013.2
20260902130005 25 232 1.6 4.8 0.00 0.00 0.00 81 1013.0
20260902124503 24 232 0.0 3.2 0.00 0.00 0.00 81 1013.0